TimeCST,TemperatureF,Dew PointF,Humidity,Sea Level PressureIn,VisibilityMPH,Wind Direction,Wind SpeedMPH,Gust SpeedMPH,PrecipitationIn,Events,Conditions,WindDirDegrees,DateUTC
12:15 AM,24.8,22.6,91,30.03,5.0,ENE,5.8,-,N/A,,Mostly Cloudy,70,2013-12-16 06:15:00
12:35 AM,24.4,22.1,91,30.03,5.0,ENE,6.9,-,N/A,,Scattered Clouds,60,2013-12-16 06:35:00
12:55 AM,24.3,22.1,91,30.03,5.0,NE,4.6,-,N/A,,Mostly Cloudy,40,2013-12-16 06:55:00
1:15 AM,23.9,21.9,92,30.03,5.0,NE,4.6,-,N/A,,Mostly Cloudy,40,2013-12-16 07:15:00
1:35 AM,23.4,21.2,91,30.04,5.0,NNE,6.9,-,N/A,,Mostly Cloudy,30,2013-12-16 07:35:00
1:55 AM,22.8,20.8,92,30.04,5.0,NE,9.2,-,N/A,,Scattered Clouds,40,2013-12-16 07:55:00
2:15 AM,22.1,20.1,92,30.05,5.0,NE,10.4,16.1,N/A,,Mostly Cloudy,40,2013-12-16 08:15:00
2:35 AM,21.2,19.0,91,30.05,7.0,NE,12.7,-,N/A,,Scattered Clouds,40,2013-12-16 08:35:00
2:55 AM,21.0,18.5,90,30.04,7.0,NE,10.4,-,N/A,,Clear,50,2013-12-16 08:55:00
3:15 AM,20.8,18.5,91,30.04,7.0,ENE,8.1,-,N/A,,Scattered Clouds,60,2013-12-16 09:15:00
3:35 AM,20.8,18.5,91,30.03,7.0,ENE,9.2,-,N/A,,Scattered Clouds,60,2013-12-16 09:35:00
4:15 AM,20.5,18.1,91,30.04,7.0,NNE,8.1,-,N/A,,Mostly Cloudy,30,2013-12-16 10:15:00
4:35 AM,20.7,18.3,91,30.04,7.0,NE,6.9,-,N/A,,Mostly Cloudy,40,2013-12-16 10:35:00
4:55 AM,20.5,18.1,91,30.05,7.0,NE,5.8,-,N/A,,Mostly Cloudy,40,2013-12-16 10:55:00
5:15 AM,20.3,18.0,91,30.05,7.0,NE,5.8,-,N/A,,Overcast,50,2013-12-16 11:15:00
5:35 AM,20.3,18.0,91,30.05,7.0,ENE,5.8,-,N/A,,Overcast,60,2013-12-16 11:35:00
5:55 AM,20.3,18.0,91,30.05,7.0,NE,6.9,-,N/A,,Overcast,50,2013-12-16 11:55:00
6:15 AM,20.3,18.0,91,30.05,7.0,NE,8.1,-,N/A,,Overcast,40,2013-12-16 12:15:00
6:35 AM,20.1,17.6,90,30.05,7.0,NE,5.8,-,N/A,,Overcast,50,2013-12-16 12:35:00
6:55 AM,20.1,17.6,90,30.06,7.0,NE,5.8,-,N/A,,Overcast,50,2013-12-16 12:55:00
7:15 AM,19.9,17.6,91,30.07,7.0,NE,6.9,-,N/A,,Overcast,40,2013-12-16 13:15:00
7:35 AM,19.9,17.6,91,30.08,5.0,NE,4.6,-,N/A,,Overcast,40,2013-12-16 13:35:00
7:55 AM,19.9,17.6,91,30.08,5.0,NNE,4.6,-,N/A,,Overcast,30,2013-12-16 13:55:00
8:15 AM,20.1,17.8,91,30.09,4.0,NNE,3.5,-,N/A,,Overcast,30,2013-12-16 14:15:00
8:35 AM,20.1,18.1,92,30.09,4.0,NE,6.9,-,N/A,,Overcast,40,2013-12-16 14:35:00
8:55 AM,20.3,18.5,93,30.09,3.0,NE,6.9,-,N/A,,Overcast,50,2013-12-16 14:55:00
9:15 AM,21.0,19.2,93,30.09,2.0,ENE,5.8,-,N/A,,Overcast,60,2013-12-16 15:15:00
9:35 AM,21.2,19.4,93,30.09,1.8,ENE,5.8,-,N/A,,Overcast,60,2013-12-16 15:35:00
9:55 AM,21.9,20.1,93,30.09,1.8,East,4.6,-,N/A,,Overcast,90,2013-12-16 15:55:00
10:15 AM,22.1,20.3,93,30.09,1.8,ESE,3.5,-,N/A,,Overcast,110,2013-12-16 16:15:00
10:35 AM,22.3,20.5,93,30.09,1.8,East,3.5,-,N/A,,Overcast,90,2013-12-16 16:35:00
10:55 AM,23.0,21.0,92,30.09,2.0,Calm,Calm,-,N/A,,Overcast,0,2013-12-16 16:55:00
11:15 AM,23.5,21.0,90,30.08,3.0,Calm,Calm,-,N/A,,Overcast,0,2013-12-16 17:15:00
11:35 AM,23.5,21.2,91,30.07,2.5,Calm,Calm,-,N/A,,Overcast,0,2013-12-16 17:35:00
11:55 AM,23.9,21.7,91,30.06,2.5,SSE,3.5,-,N/A,,Overcast,160,2013-12-16 17:55:00
12:15 PM,23.9,21.9,92,30.05,2.0,ESE,3.5,-,N/A,,Overcast,120,2013-12-16 18:15:00
12:35 PM,24.1,22.1,92,30.03,2.0,SE,3.5,-,N/A,,Overcast,140,2013-12-16 18:35:00
12:55 PM,24.4,22.6,93,30.03,2.0,SSE,3.5,-,N/A,,Overcast,150,2013-12-16 18:55:00
1:15 PM,24.6,22.8,93,30.03,1.2,SSW,5.8,-,N/A,,Overcast,200,2013-12-16 19:15:00
1:35 PM,24.8,23.4,94,30.03,1.5,SSW,4.6,-,N/A,,Overcast,200,2013-12-16 19:35:00
1:55 PM,25.2,23.5,94,30.02,1.8,Calm,Calm,-,N/A,,Overcast,0,2013-12-16 19:55:00
2:15 PM,25.7,23.9,93,30.02,2.0,SSW,3.5,-,N/A,,Overcast,210,2013-12-16 20:15:00
2:35 PM,26.2,24.3,92,30.02,2.0,Calm,Calm,-,N/A,,Overcast,0,2013-12-16 20:35:00
2:55 PM,26.6,24.6,92,30.02,2.0,Calm,Calm,-,N/A,,Overcast,0,2013-12-16 20:55:00
3:15 PM,26.6,24.8,93,30.02,2.5,South,3.5,-,N/A,,Overcast,180,2013-12-16 21:15:00
3:35 PM,26.6,24.8,93,30.02,2.5,SW,3.5,-,N/A,,Overcast,230,2013-12-16 21:35:00
3:55 PM,26.6,24.8,93,30.02,2.0,South,3.5,-,N/A,,Overcast,190,2013-12-16 21:55:00
4:15 PM,26.6,25.2,94,30.02,1.8,WSW,3.5,-,N/A,,Overcast,250,2013-12-16 22:15:00
4:35 PM,26.4,24.8,94,30.03,1.5,West,4.6,-,N/A,,Overcast,260,2013-12-16 22:35:00
4:55 PM,26.2,25.0,95,30.03,1.8,WSW,4.6,-,N/A,,Overcast,250,2013-12-16 22:55:00
5:15 PM,26.1,24.8,95,30.03,1.5,WSW,8.1,-,N/A,,Overcast,250,2013-12-16 23:15:00
5:35 PM,26.2,24.8,94,30.05,1.8,West,5.8,-,N/A,,Overcast,260,2013-12-16 23:35:00
5:55 PM,26.2,24.8,94,30.06,1.2,West,6.9,-,N/A,,Overcast,280,2013-12-16 23:55:00
6:15 PM,26.4,25.0,94,30.07,1.8,WNW,8.1,-,N/A,,Overcast,300,2013-12-17 00:15:00
6:35 PM,26.2,25.0,95,30.08,1.5,WNW,8.1,-,N/A,,Overcast,300,2013-12-17 00:35:00
6:55 PM,26.4,25.2,95,30.09,2.5,WNW,8.1,-,N/A,,Overcast,300,2013-12-17 00:55:00
7:15 PM,26.4,24.8,94,30.09,3.0,NW,9.2,-,N/A,,Overcast,310,2013-12-17 01:15:00
7:35 PM,26.4,24.8,94,30.10,3.0,NW,10.4,-,N/A,,Overcast,310,2013-12-17 01:35:00
7:55 PM,26.2,24.8,94,30.11,3.0,NW,9.2,-,N/A,,Overcast,310,2013-12-17 01:55:00
8:15 PM,26.1,24.6,94,30.11,3.0,NW,10.4,-,N/A,,Overcast,310,2013-12-17 02:15:00
8:35 PM,26.1,24.4,94,30.11,4.0,NW,9.2,-,N/A,,Overcast,310,2013-12-17 02:35:00
8:55 PM,26.1,24.1,92,30.11,4.0,NW,6.9,-,N/A,,Overcast,320,2013-12-17 02:55:00
9:15 PM,25.9,24.1,93,30.11,4.0,NW,8.1,-,N/A,,Overcast,310,2013-12-17 03:15:00
9:35 PM,25.7,23.9,93,30.11,3.0,NW,4.6,-,N/A,,Overcast,320,2013-12-17 03:35:00
9:55 PM,25.7,23.9,93,30.12,4.0,NW,5.8,-,N/A,,Overcast,320,2013-12-17 03:55:00
10:15 PM,25.7,23.9,93,30.13,4.0,NW,5.8,-,N/A,,Overcast,310,2013-12-17 04:15:00
10:35 PM,25.9,23.9,92,30.14,4.0,WNW,5.8,-,N/A,,Overcast,290,2013-12-17 04:35:00
10:55 PM,26.1,23.9,92,30.14,4.0,WNW,3.5,-,N/A,,Overcast,300,2013-12-17 04:55:00
11:55 PM,26.2,23.9,91,30.14,4.0,NW,5.8,-,N/A,,Overcast,320,2013-12-17 05:55:00